Location: Newark
(36.6843°N, 3.3697°E)
Time: 12:46:32
(UTC+00:00)

Hubble Space Telescope - Visible Passes

Search period start: 08 December 2019 00:00
Search period end: 18 December 2019 00:00
Orbit: 536 x 540 km, 28.5° (Epoch: 07 December)

Date Brightness Start Highest point End Pass type
(mag) Time Alt. Az. Time Alt. Az. Time Alt. Az.
13 Dec 3.6 05:26:30 10° S 05:28:10 12° SSE 05:29:49 10° SE visible
14 Dec 3.4 05:15:10 10° SSW 05:17:27 14° SSE 05:19:43 10° SE visible
15 Dec 3.2 05:04:06 10° SSW 05:06:44 17° SSE 05:09:25 10° SE visible
16 Dec 2.9 04:54:29 16° SSW 04:56:02 19° SSE 04:58:59 10° ESE visible
17 Dec 2.7 04:44:45 20° S 04:45:20 21° S 04:48:29 10° ESE visible
